Theta_e
336 336 335 336 338 335 336 336 336 337 336 336 337 335 329 334 332 335 331 335 336 336 335 334 331 328 329 328 329 329 330 331 330 331 331 331 329 328 327 327 327 324 322
332 330 332 334 336 335 333 336 336 334 334 335 335 323 324 330 333 335 335 334 337 336 336 335 332 327 328 328 328 328 329 330 329 329 330 330 331 330 329 328 328 327 325
327 328 329 330 330 330 330 331 332 333 334 333 330 322 326 327 330 328 336 335 334 335 336 336 332 329 327 327 328 328 328 329 329 329 329 329 330 331 330 329 329 328 327
325 326 326 327 327 327 327 328 327 329 330 332 328 323 327 327 325 327 335 334 333 331 331 333 333 335 332 329 327 328 328 328 329 329 329 329 329 329 331 330 329 329 329
312 312 313 315 318 319 320 324 324 323 326 328 330 328 326 326 326 327 328 331 331 333 332 332 330 332 333 334 331 327 328 328 328 328 328 330 328 329 330 330 331 330 329
305 305 305 307 308 309 310 311 313 314 318 321 326 329 328 328 327 328 329 329 330 332 331 330 329 329 329 328 334 332 329 327 329 329 327 329 329 329 329 330 330 331 330
306 306 305 304 303 303 304 305 307 309 311 314 315 315 318 327 329 328 327 329 330 328 327 328 330 330 329 329 329 332 332 331 327 328 329 328 330 330 329 329 329 330 331
304 305 305 306 306 305 302 302 303 304 307 312 316 317 317 315 315 314 318 320 322 324 328 329 329 329 329 329 328 328 330 331 330 328 329 329 329 330 329 329 328 329 330
301 301 302 302 303 303 303 302 301 302 302 304 313 313 317 321 321 316 318 322 327 329 328 328 327 329 329 329 328 328 328 330 331 331 330 329 329 328 329 329 329 328 328
301 301 300 300 300 300 300 300 299 300 301 301 302 311 312 312 315 315 314 313 316 320 324 324 323 322 327 329 328 329 329 328 329 331 332 328 330 329 330 329 329 329 328
300 300 300 300 299 298 296 295 296 296 296 298 300 301 303 310 312 310 313 314 312 311 310 311 312 320 320 325 326 327 326 327 330 330 328 330 329 330 330 330 329 329 328
300 299 299 297 296 295 294 293 292 293 293 294 296 297 299 300 302 303 306 311 311 310 310 309 320 322 322 324 324 324 325 326 325 329 330 329 329 330 330 330 330 329 328
298 297 295 293 291 290 290 290 290 291 291 292 293 294 295 298 298 299 301 302 303 304 305 305 306 314 325 326 325 324 323 323 323 324 326 329 329 327 329 329 331 329 328
297 295 294 293 291 291 290 288 289 289 289 290 290 291 292 293 295 297 298 298 300 301 302 303 305 305 307 313 315 320 320 322 324 327 327 329 330 327 327 328 327 328 329
296 295 294 294 293 293 291 288 288 288 288 288 288 288 289 291 292 294 295 297 298 300 301 303 305 308 310 313 310 314 322 321 324 325 327 328 328 327 326 325 326 326 327
295 295 294 294 294 294 293 291 289 288 287 286 286 286 286 287 288 291 293 294 296 297 299 301 302 304 306 307 312 311 318 320 322 326 325 325 327 328 327 326 326 326 326
293 293 292 293 293 293 293 293 291 290 288 286 285 285 285 285 286 288 291 292 294 295 296 298 301 302 304 305 305 310 315 318 318 320 323 324 325 327 327 327 327 325 325
288 288 287 287 287 288 290 291 290 289 288 287 285 284 283 284 286 287 289 290 292 294 295 297 299 301 301 303 305 307 307 315 319 321 323 323 319 322 326 327 327 327 326
285 285 285 285 285 284 285 287 287 287 286 287 285 285 284 283 284 286 287 288 289 292 295 297 298 299 302 303 305 306 308 309 313 315 320 322 321 320 320 325 327 327 327
284 284 284 284 284 284 284 283 283 283 285 286 285 285 284 283 284 285 285 286 287 289 292 295 297 299 301 303 305 306 308 311 312 313 318 320 321 319 317 322 325 326 326
283 283 283 283 283 283 283 282 281 281 281 282 284 286 285 285 285 285 285 284 285 286 288 291 295 297 299 301 303 304 306 310 312 314 319 321 321 322 318 318 321 324 325
282 282 282 282 282 282 281 281 281 280 280 281 281 280 284 284 285 286 286 285 284 284 285 285 286 288 290 294 298 301 304 307 310 315 317 319 319 321 323 321 318 324 325
282 282 282 281 282 281 281 280 279 279 280 280 280 279 280 280 285 286 286 286 285 284 284 284 284 285 286 287 292 298 301 303 303 306 311 315 316 316 317 321 323 322 324
282 281 281 281 280 280 280 279 279 279 278 278 279 278 278 279 279 280 285 286 285 284 284 284 285 285 285 286 288 290 295 300 298 299 304 308 311 311 313 313 316 317 317
282 281 280 280 280 280 279 279 279 279 278 278 278 278 277 277 278 280 281 281 281 284 286 285 285 286 286 286 288 291 293 295 293 293 297 300 302 307 307 309 311 313 315
281 281 281 280 279 279 278 278 278 278 278 277 277 277 276 276 276 278 279 278 279 279 280 281 281 282 285 285 286 286 283 286 285 288 289 291 294 297 302 302 302 304 308
Wind_Speed
15 17 18 18 17 17 21 25 28 29 31 29 29 21 12 30 28 23 20 20 22 22 20 19 19 21 20 20 20 21 22 23 24 24 25 25 27 25 23 21 19 20 19
14 15 15 16 17 19 22 24 24 26 27 29 26 24 26 12 21 25 25 20 19 22 19 21 20 21 22 21 22 22 26 25 25 25 26 27 29 28 26 26 23 23 22
12 14 16 17 17 17 18 17 18 18 19 20 20 19 14 27 30 34 28 22 27 26 24 25 24 22 24 25 24 24 25 27 27 27 27 28 29 30 30 29 27 26 26
13 13 15 15 16 17 19 18 16 16 15 12 11 8 11 20 28 42 32 26 26 31 31 29 27 25 23 26 27 28 27 29 29 28 29 29 30 31 30 31 31 28 30
11 11 11 12 11 11 11 13 13 11 11 11 9 7 7 12 20 36 37 34 33 33 35 35 32 31 28 27 28 30 30 31 32 31 31 32 31 32 32 32 33 32 32
15 14 13 13 13 14 13 12 14 10 9 9 13 14 13 18 23 27 32 34 34 34 34 35 34 34 34 31 32 32 30 33 34 35 34 35 33 33 34 34 34 35 34
17 17 17 16 14 15 15 14 14 14 11 11 12 11 19 23 25 26 27 30 32 34 35 37 39 40 40 37 36 35 32 33 36 38 37 37 37 35 35 36 36 36 37
17 19 19 19 19 16 15 14 15 14 13 7 9 10 9 14 17 21 22 23 26 25 25 26 28 32 36 37 38 38 35 35 36 39 40 40 40 39 37 38 38 37 38
19 18 20 21 22 21 20 18 15 13 16 13 6 5 5 5 15 19 19 22 19 20 22 22 23 26 33 41 42 40 40 39 38 39 44 43 42 42 39 38 40 39 39
20 21 22 22 21 20 19 18 17 17 14 16 13 16 13 13 8 17 22 22 26 30 30 30 32 31 26 27 38 41 40 39 39 39 41 43 45 45 42 40 39 40 40
19 21 21 21 20 19 19 18 16 15 15 15 16 19 20 25 20 18 31 31 34 31 29 30 33 30 28 28 29 34 40 42 37 41 41 43 47 47 45 43 40 41 41
22 23 23 21 20 19 18 18 17 15 14 12 13 16 17 12 16 16 23 39 39 43 31 32 29 29 31 29 29 30 32 36 40 40 43 46 44 49 48 45 42 42 42
22 24 23 22 21 20 19 17 16 15 14 13 13 14 16 20 20 21 23 32 37 45 45 44 36 33 29 28 28 27 30 33 33 37 39 43 44 43 48 47 45 44 44
20 21 21 21 21 20 19 18 15 15 15 14 14 13 14 16 19 23 26 26 37 40 44 48 33 35 37 35 33 33 32 31 33 36 38 44 49 48 44 47 46 47 46
16 17 19 20 22 23 21 18 18 18 18 16 15 15 17 18 18 19 22 24 29 33 41 31 21 11 19 21 25 25 29 31 33 33 33 38 40 37 41 42 46 48 48
13 15 17 19 22 23 22 21 22 21 19 18 17 18 18 15 17 21 23 26 29 35 42 32 34 34 30 28 25 24 26 28 28 28 40 38 38 40 41 40 45 47 47
13 14 16 16 18 20 20 21 25 25 23 22 19 19 19 18 17 14 20 26 31 33 42 41 35 31 29 33 35 32 26 25 31 29 30 36 36 36 40 47 48 46 48
10 12 14 16 17 18 18 19 23 25 26 24 22 19 20 20 16 14 14 16 19 23 32 39 38 38 38 33 31 31 36 30 23 24 28 26 37 37 35 40 48 50 50
10 11 14 16 17 18 18 18 19 22 25 26 25 23 23 23 20 19 17 20 20 22 25 24 29 29 24 25 30 30 28 31 37 32 25 28 26 34 28 36 43 50 51
9 11 13 16 16 17 19 19 21 21 22 24 25 24 23 24 19 18 19 21 22 21 18 26 32 31 23 28 20 22 22 21 25 27 24 26 27 21 28 36 29 38 47
10 12 13 15 16 16 19 18 19 20 22 24 26 26 24 21 16 15 17 22 25 23 19 13 5 6 11 14 23 22 20 17 15 19 22 21 21 26 25 37 30 28 31
11 12 13 15 17 18 16 17 19 20 22 24 27 29 27 25 21 17 15 17 23 29 27 25 22 20 17 15 19 21 20 16 12 16 6 8 14 18 27 27 27 23 24
10 12 14 15 17 20 16 17 19 21 22 24 27 30 30 29 25 20 17 17 18 22 25 25 28 28 27 21 14 12 13 10 10 17 15 13 11 6 11 17 21 25 23
10 13 15 16 17 20 18 18 18 20 22 25 26 30 30 30 27 24 19 18 20 22 25 24 24 25 26 24 19 18 10 5 6 7 13 11 15 12 13 14 16 19 20
10 12 14 15 16 18 21 18 17 19 22 24 25 26 28 30 28 24 22 22 21 20 19 20 20 21 25 28 27 23 24 8 6 15 16 8 11 18 14 12 14 19 20
10 11 12 15 16 16 21 22 19 19 23 25 25 27 28 28 30 26 25 26 26 25 23 21 22 25 27 28 28 31 36 31 27 12 27 11 15 12 4 6 7 8 11
Wind_Direction
286 285 272 271 270 268 272 272 273 271 271 271 266 232 322 246 249 254 231 232 247 232 232 245 255 245 235 230 226 225 224 224 221 219 217 219 223 223 223 219 217 218 219
285 288 300 296 291 277 277 280 281 280 282 278 276 332 312 258 247 248 240 239 246 237 238 248 254 250 240 235 231 231 228 227 226 224 223 221 223 227 228 224 220 220 218
308 298 288 288 293 299 295 298 293 294 289 299 316 333 225 242 223 234 258 243 247 248 249 254 258 252 244 239 235 233 229 227 227 228 227 227 226 225 227 228 224 221 221
306 303 294 289 287 286 289 289 293 293 288 312 309 332 216 206 228 226 238 239 251 245 254 254 253 253 251 246 243 238 231 228 230 232 232 232 229 228 227 228 228 226 224
325 319 310 305 307 301 298 291 299 305 298 291 301 292 283 266 233 234 244 245 253 254 255 257 257 254 254 250 248 243 239 236 235 235 235 235 233 230 229 228 229 229 228
339 332 320 314 315 312 306 296 289 290 289 291 260 258 254 244 241 245 249 252 258 255 254 257 259 261 257 250 246 244 244 245 240 238 236 235 234 231 230 230 228 230 230
331 325 321 326 319 317 313 308 296 295 288 286 298 268 251 249 250 252 255 256 259 261 263 262 264 262 259 250 247 247 246 245 245 243 238 236 234 234 232 230 230 229 231
318 317 315 315 317 317 311 308 302 296 292 289 298 309 301 275 265 259 262 264 264 263 265 267 266 264 258 255 249 250 247 250 247 244 242 236 234 235 235 232 230 230 230
315 314 312 313 313 312 312 312 308 294 287 280 252 310 303 275 282 266 259 256 259 264 264 264 267 269 260 263 255 250 250 251 252 251 246 241 236 235 236 234 232 230 232
318 317 318 318 319 318 311 313 313 307 291 278 267 228 232 257 288 294 275 257 257 259 263 266 269 270 277 272 255 254 250 253 253 253 250 246 241 237 237 235 235 233 233
328 326 328 328 329 333 336 332 329 323 315 297 281 280 249 243 247 264 281 283 272 266 265 269 266 266 269 277 271 264 258 251 249 250 247 251 245 239 238 236 235 236 233
343 342 343 345 342 339 335 335 337 335 335 324 303 283 282 282 256 269 275 266 276 279 275 261 259 260 266 266 266 265 263 263 262 256 252 247 245 244 240 236 235 236 236
358 1 360 1 358 352 345 340 342 347 343 327 310 302 280 270 272 275 280 285 285 280 280 273 263 256 256 260 266 266 262 265 264 263 259 249 241 238 242 239 238 236 236
13 12 12 12 7 360 356 0 3 1 352 341 325 313 298 287 277 274 273 279 285 284 281 280 288 267 258 261 267 271 271 271 270 266 261 254 250 238 236 240 240 240 235
17 19 19 18 18 17 18 21 21 3 352 345 346 325 302 286 273 266 266 266 271 281 287 289 297 293 261 265 267 270 270 277 277 273 268 259 261 235 235 236 242 241 240
11 16 20 18 20 23 26 22 21 6 2 0 346 343 342 325 292 273 268 263 260 266 275 279 280 280 275 268 259 256 258 262 270 273 268 256 249 248 246 242 239 239 239
7 14 15 15 17 19 22 21 24 15 11 4 2 1 349 340 331 315 283 275 266 263 272 277 279 287 294 289 273 255 255 263 267 272 271 259 257 258 253 246 239 239 233
15 17 18 17 19 19 19 20 24 21 17 13 11 3 357 0 359 346 328 317 295 277 277 277 285 290 287 293 295 287 257 256 267 273 270 274 265 261 256 249 248 243 242
17 18 23 21 19 20 19 18 21 20 20 21 21 15 7 8 360 352 343 329 317 289 268 275 282 277 284 297 288 287 286 266 256 263 269 260 261 256 269 261 250 244 248
27 28 27 23 18 19 23 23 23 23 24 26 27 28 22 15 3 2 2 359 352 338 307 274 271 267 301 274 293 282 281 280 272 265 263 262 263 268 260 256 259 247 243
35 33 29 26 23 24 26 25 25 27 31 34 34 30 32 26 17 16 23 25 25 18 18 11 335 269 281 289 278 294 304 293 278 267 265 265 253 250 257 246 264 261 254
42 36 35 30 30 32 27 25 29 27 28 30 34 33 32 32 33 27 27 37 45 39 42 42 39 31 11 339 298 293 302 308 300 261 283 273 271 248 249 251 252 264 245
47 41 38 36 33 38 28 29 31 32 29 32 33 32 31 32 36 33 32 37 46 55 52 53 49 41 32 19 349 313 296 300 283 279 284 263 266 257 243 241 244 240 254
48 42 40 36 37 42 38 37 30 36 34 35 34 34 28 29 32 35 38 40 45 48 52 49 54 50 47 43 41 30 347 283 231 278 289 285 273 281 286 290 279 273 268
45 36 36 34 32 36 32 32 29 34 35 35 35 39 27 28 27 32 35 40 42 46 51 58 59 57 52 51 52 56 52 77 42 30 12 346 317 291 297 284 280 282 277
41 31 29 27 25 28 32 29 27 32 33 33 35 35 34 31 27 31 30 35 38 36 38 44 51 49 48 49 49 52 44 46 46 40 23 31 12 2 300 286 313 302 286